sat.trackr.live / text

‹ back to catalog

STARLINK-35953

NORAD 66637 · 2025-271W

PAYLOAD ACTIVE UNKNOWN

§ Identity

Operator
Country
US
Launch date
2025-11-23
Launch site
AFWTR
Launch vehicle
Mass (kg)
RCS (m²)

Purposes: comms

External: N2YO · Heavens-Above · Gunter

§ Orbital elements

Epoch: 2026-05-25T03:29:56.713920Z

Period
93.85 min
Inclination
53.1588°
Eccentricity
0.0001264
Mean motion
15.34412265 rev/d
Perigee alt
461.8 km
Apogee alt
463.5 km
Semi-major
6,840.8 km
B*
6.0377e-4
RAAN
143.3013°
Arg perigee
101.3497°
Mean anomaly
258.7647°
Rev number
2,929

§ Raw data

STARLINK-359531 66637U 25271W   26145.14579530  .00020086  00000+0  60377-3 0  99982 66637  53.1588 143.3013 0001264 101.3497 258.7647 15.34412265 29297

JSON: /api/v1/satellites/66637 · /tle

For live sub-satellite position, see the globe view (requires WebGL).

§ Visibility from observer

Set your observer location to see the next 7 days of passes ≥ 10°. The values pass through the URL so the page stays shareable.

No JS? Fill the form by hand. The geolocation button needs JavaScript.